Weather History for Eagle, CO

Change the Weather History Date:

Monday, January 21, 2013

  Actual Average Record
Temperature  
Mean Temperature 16 °F -  
Max Temperature 33 °F 36 °F 52 °F (1950)
Min Temperature -2 °F 5 °F -24 °F (1966)
Degree Days  
Heating Degree Days 50    
Moisture  
Dew Point 2 °F    
Average Humidity 77    
Maximum Humidity 92    
Minimum Humidity 32    
Precipitation  
Precipitation 0.00 in - - ()
Sea Level Pressure  
Sea Level Pressure 30.34 in    
Wind  
Wind Speed 1 mph (ESE)    
Max Wind Speed 6 mph    
Max Gust Speed -    
Visibility 10 miles    
Events      
Averages and records for this station are not official NWS values.
T = Trace of Precipitation, MM = Missing Value Source: NWS Daily Summary

Daily Weather History Graph

Daily Weather History Graph

Search for Another Location

Airport:

Trip Planner

Search our weather history database for the weather conditions in past years. The results will help you decide how hot, cold, wet, or windy it might be!

Date:

Astronomy

Jan. 21, 2013 Rise Set
Actual Time 7:23 AM MST 5:15 PM MST
Civil Twilight 6:54 AM MST 5:44 PM MST
Nautical Twilight 6:21 AM MST 6:17 PM MST
Astronomical Twilight 5:49 AM MST 6:49 PM MST
Moon 12:56 PM MST 2:54 AM MST
Length of Visible Light 10h 49m
Length of Day
9h 51m
Waxing Gibbous, 75% of the Moon is Illuminated
Jan 21
Waxing Gibbous
Jan 26
Full
Feb 3
Last Quarter
Feb 10
New
Feb 17
First Quarter

Hourly Weather History & Observations

Time (MST) Temp. Windchill Dew Point Humidity Pressure Visibility Wind Dir Wind Speed Gust Speed Precip Events Conditions
12:15 AM 6.8 °F - 1.4 °F 79% 30.34 in 10.0 mi Calm Calm - N/A   Clear
12:35 AM 5.0 °F -4.1 °F 1.4 °F 85% 30.34 in 10.0 mi East 4.6 mph - N/A   Clear
12:55 AM 5.0 °F - 1.4 °F 85% 30.34 in 10.0 mi Calm Calm - N/A   Clear
1:15 AM 3.2 °F - 1.4 °F 92% 30.35 in 10.0 mi Calm Calm - N/A   Clear
1:35 AM 3.2 °F - -0.4 °F 85% 30.35 in 10.0 mi Calm Calm - N/A   Clear
1:55 AM 3.2 °F - -0.4 °F 85% 30.35 in 10.0 mi Calm Calm - N/A   Clear
2:15 AM 3.2 °F -4.2 °F -0.4 °F 85% 30.35 in 10.0 mi ESE 3.5 mph - N/A   Clear
2:35 AM 3.2 °F - -0.4 °F 85% 30.35 in 10.0 mi Calm Calm - N/A   Clear
2:55 AM 3.2 °F - -0.4 °F 85% 30.35 in 10.0 mi Calm Calm - N/A   Clear
3:15 AM 1.4 °F -6.2 °F -0.4 °F 92% 30.35 in 10.0 mi ESE 3.5 mph - N/A   Clear
3:35 AM 1.4 °F -8.3 °F -2.2 °F 85% 30.35 in 10.0 mi ESE 4.6 mph - N/A   Clear
3:55 AM 1.4 °F - -2.2 °F 85% 30.35 in 10.0 mi Calm Calm - N/A   Clear
4:15 AM 1.4 °F - -2.2 °F 85% 30.36 in 10.0 mi Calm Calm - N/A   Clear
4:35 AM -0.4 °F -10.4 °F -2.2 °F 92% 30.36 in 10.0 mi East 4.6 mph - N/A   Clear
4:55 AM -0.4 °F -10.4 °F -2.2 °F 92% 30.36 in 10.0 mi ESE 4.6 mph - N/A   Clear
5:15 AM -0.4 °F -10.4 °F -2.2 °F 92% 30.36 in 10.0 mi SE 4.6 mph - N/A   Clear
5:35 AM -0.4 °F -8.3 °F -2.2 °F 92% 30.37 in 10.0 mi ESE 3.5 mph - N/A   Clear
5:55 AM -0.4 °F - -4.0 °F 85% 30.37 in 10.0 mi Calm Calm - N/A   Clear
6:35 AM -2.2 °F - -5.8 °F 85% 30.38 in 10.0 mi Calm Calm - N/A   Clear
6:50 AM -2.2 °F - -5.8 °F 85% 30.38 in 10.0 mi Calm Calm - N/A   Clear
7:50 AM -2.2 °F - -5.8 °F 85% 30.40 in 10.0 mi Calm Calm - N/A   Clear
8:50 AM 1.4 °F - -2.2 °F 85% 30.42 in 10.0 mi Calm Calm - N/A   Clear
9:50 AM 8.6 °F - 3.2 °F 79% 30.42 in 10.0 mi Calm Calm - N/A   Clear
10:50 AM 10.4 °F - 3.2 °F 73% 30.42 in 10.0 mi Calm Calm - N/A   Clear
11:50 AM 17.6 °F - 8.6 °F 68% 30.38 in 10.0 mi Calm Calm - N/A   Partly Cloudy
12:50 PM 21.2 °F - 10.4 °F 63% 30.34 in 10.0 mi Calm Calm - N/A   Partly Cloudy
1:50 PM 26.6 °F - 10.4 °F 51% 30.29 in 10.0 mi Calm Calm - N/A   Partly Cloudy
2:50 PM 30.2 °F - 10.4 °F 44% 30.27 in 10.0 mi Calm Calm - N/A   Clear
3:50 PM 33.8 °F - 6.8 °F 32% 30.26 in 10.0 mi Calm Calm - N/A   Clear
4:50 PM 32.0 °F - 10.4 °F 41% 30.26 in 10.0 mi Calm Calm - N/A   Clear
5:50 PM 26.6 °F 22.6 °F 12.2 °F 55% 30.28 in 10.0 mi ESE 3.5 mph - N/A   Clear
6:50 PM 21.2 °F - 10.4 °F 63% 30.29 in 10.0 mi Calm Calm - N/A   Clear
7:50 PM 15.8 °F - 8.6 °F 73% 30.29 in 10.0 mi Calm Calm - N/A   Clear
8:50 PM 15.8 °F 7.2 °F 8.6 °F 73% 30.30 in 10.0 mi Variable 5.8 mph - N/A   Clear
9:50 PM 12.2 °F 4.3 °F 6.8 °F 79% 30.32 in 10.0 mi East 4.6 mph - N/A   Clear
10:50 PM 8.6 °F - 3.2 °F 79% 30.33 in 10.0 mi Calm Calm - N/A   Clear
11:15 PM 8.6 °F -1.3 °F 3.2 °F 79% 30.34 in 10.0 mi East 5.8 mph - N/A   Clear
11:35 PM 6.8 °F -3.5 °F 3.2 °F 85% 30.34 in 10.0 mi ESE 5.8 mph - N/A   Clear
11:55 PM 8.6 °F - 3.2 °F 79% 30.34 in 10.0 mi Calm Calm - N/A   Clear